Kapolei, HI

3:49 PM HST on January 19, 2017 (GMT -1000)
Kalaeloa (John Rodgers Field)

Weather History for PHJR - August, 2013

Change the Weather History Date:

Wednesday, August 7, 2013

  Actual Average (PHNL) Record (PHNL)
Temperature  
Mean Temperature 78 °F -  
Max Temperature 87 °F 89 °F 92 °F (1969)
Min Temperature 70 °F 74 °F 68 °F (1979)
Cooling Degree Days 14    
Growing Degree Days 28 (Base 50)    
Moisture  
Dew Point 63 °F    
Average Humidity 63    
Maximum Humidity 78    
Minimum Humidity 41    
Precipitation  
Precipitation 0.00 in - - ()
Sea Level Pressure  
Sea Level Pressure 30.05 in    
Wind  
Wind Speed 4 mph (ENE)    
Max Wind Speed 10 mph    
Max Gust Speed 20 mph    
Visibility 10 miles    
Events      
Averages and records for this station are not official NWS values.
T = Trace of Precipitation, MM = Missing Value Source: NWS Daily Summary

Daily Weather History Graph

Daily Weather History Graph

Search for Another Location

Airport or City:

Trip Planner

Search our weather history database for the weather conditions in past years. The results will help you decide how hot, cold, wet, or windy it might be!

Date:

Astronomy

Aug. 07, 2013 Rise Set
Actual Time 6:08 AM HST 7:07 PM HST
Civil Twilight 5:44 AM HST 7:30 PM HST
Nautical Twilight 5:17 AM HST 7:58 PM HST
Astronomical Twilight 4:48 AM HST 8:26 PM HST
Moon 6:52 AM HST (8/7) 7:39 PM HST (8/7)
Length of Visible Light 13h 46m
Length of Day
12h 59m
New Moon, 1% of the Moon is Illuminated
Aug 7
New Moon
Aug 14
First Quarter
Aug 20
Full
Aug 27
Last Quarter
Sep 5
New

Hourly Weather History & Observations

Time (HST) Temp. Heat Index Dew Point Humidity Pressure Visibility Wind Dir Wind Speed Gust Speed Precip Events Conditions
12:53 AM 72.0 °F - 64.0 °F 76% 30.06 in 10.0 mi NE 3.5 mph - N/A   Clear
1:53 AM 72.0 °F - 64.0 °F 76% 30.05 in 10.0 mi Variable 3.5 mph - N/A   Clear
2:53 AM 72.0 °F - 64.0 °F 76% 30.04 in 10.0 mi Variable 3.5 mph - N/A   Clear
3:53 AM 71.1 °F - 63.0 °F 75% 30.04 in 10.0 mi ENE 3.5 mph - N/A   Clear
4:05 AM 71.6 °F - 62.6 °F 73% 30.02 in 10.0 mi NE 3.5 mph - N/A   Partly Cloudy
4:53 AM 70.0 °F - 63.0 °F 78% 30.04 in 10.0 mi Variable 3.5 mph - N/A   Clear
5:53 AM 70.0 °F - 63.0 °F 78% 30.05 in 10.0 mi Calm Calm - N/A   Clear
6:40 AM 71.6 °F - 64.4 °F 78% 30.04 in 10.0 mi ENE 3.5 mph - N/A   Partly Cloudy
6:53 AM 72.0 °F - 64.0 °F 76% 30.06 in 10.0 mi Calm Calm - N/A   Partly Cloudy
7:53 AM 79.0 °F - 64.9 °F 62% 30.07 in 10.0 mi Variable 3.5 mph - N/A   Clear
8:53 AM 81.0 °F 82.7 °F 64.9 °F 58% 30.08 in 10.0 mi Variable 6.9 mph - N/A   Clear
9:53 AM 82.0 °F 83.1 °F 63.0 °F 52% 30.07 in 10.0 mi ENE 8.1 mph - N/A   Partly Cloudy
10:53 AM 86.0 °F 87.6 °F 64.9 °F 49% 30.07 in 10.0 mi ESE 9.2 mph - N/A   Mostly Cloudy
11:53 AM 84.0 °F 84.9 °F 63.0 °F 49% 30.06 in 10.0 mi ESE 10.4 mph 19.6 mph N/A   Mostly Cloudy
12:53 PM 84.9 °F 85.9 °F 63.0 °F 48% 30.06 in 10.0 mi East 8.1 mph 19.6 mph N/A   Mostly Cloudy
1:53 PM 87.1 °F 87.0 °F 61.0 °F 41% 30.04 in 10.0 mi ENE 9.2 mph 18.4 mph N/A   Scattered Clouds
2:53 PM 84.9 °F 85.0 °F 61.0 °F 44% 30.03 in 10.0 mi Variable 6.9 mph - N/A   Scattered Clouds
3:53 PM 86.0 °F 86.1 °F 61.0 °F 43% 30.02 in 10.0 mi Variable 5.8 mph - N/A   Partly Cloudy
4:53 PM 84.9 °F 84.8 °F 60.1 °F 43% 30.02 in 10.0 mi NE 9.2 mph - N/A   Clear
5:53 PM 82.0 °F 83.0 °F 62.1 °F 51% 30.03 in 10.0 mi ENE 6.9 mph - N/A   Clear
6:53 PM 79.0 °F - 63.0 °F 58% 30.04 in 10.0 mi Variable 4.6 mph - N/A   Clear
7:53 PM 77.0 °F - 64.0 °F 64% 30.06 in 10.0 mi ENE 4.6 mph - N/A   Clear
8:53 PM 75.9 °F - 64.9 °F 69% 30.07 in 10.0 mi East 4.6 mph - N/A   Clear
9:53 PM 73.9 °F - 64.0 °F 71% 30.09 in 10.0 mi Calm Calm - N/A   Scattered Clouds
10:53 PM 73.9 °F - 64.0 °F 71% 30.10 in 10.0 mi Calm Calm - N/A   Clear
11:53 PM 71.1 °F - 64.0 °F 78% 30.09 in 10.0 mi Calm Calm - N/A   Clear